Simultaneous Nadir Overpasses (SNOs) Predictions

Prediction of SNOs between GOES-15 and NPP Satellite Orbit:

Table of predicted SNOs for the next 14.0 days since TLE Epoch: 6/29/2024
Index Date Time (GOES-15) GOES-15 Lat,Lon NPP Lat,Lon Distance(km) Time Diff (sec)
1 06/29/2024 09:04:53 0.16, 61.17 1.06, 65.18 457.02 80
2 06/30/2024 21:24:03 -0.20, 61.22 0.12, 59.90 150.76 80
3 07/01/2024 21:08:00 -0.19, 61.22 -0.93, 64.42 365.63 80
4 07/03/2024 09:27:20 0.22, 61.16 -0.21, 59.10 234.38 80
5 07/04/2024 09:11:16 0.21, 61.15 0.78, 63.62 281.79 80
6 07/05/2024 21:30:27 -0.25, 61.21 0.38, 58.34 326.56 80
7 07/06/2024 21:14:23 -0.23, 61.21 -0.62, 62.87 189.44 80
8 07/08/2024 09:33:41 0.26, 61.16 -0.57, 57.55 411.05 80
9 07/09/2024 09:17:38 0.25, 61.15 0.44, 62.08 105.21 80
10 07/11/2024 21:20:45 -0.27, 61.21 -0.29, 61.32 13.31 80
